Location: Alexandria
(38.8050°N, 77.0470°W)
Time: 15:17:31
(UTC-05:00)

Tiangong 2 - Pass Details

Date: 13 November 2017
Orbit: 386 x 392 km, 42.8° (Epoch: 23 November)

Event Time Altitude Azimuth Distance (km) Brightness Sun altitude
Rises 18:54:34 0° 273° (W) 2,269 6.4 -23.2°
Reaches altitude 10° 18:58:19 10° 228° (SW) 1,407 4.6 -23.9°
Maximum altitude 18:58:47 10° 220° (SW) 1,393 4.4 -24.0°
Drops below altitude 10° 18:59:14 10° 211° (SSW) 1,406 4.3 -24.1°
Enters shadow 19:00:11 - 195° (SSW) 1,511 4.3 -24.3°
